sat.trackr.live / text

‹ back to catalog

STARLINK-31609

NORAD 59269 · 2024-050R

PAYLOAD ACTIVE UNKNOWN

§ Identity

Operator
Country
US
Launch date
2024-03-19
Launch site
AFWTR
Launch vehicle
Mass (kg)
RCS (m²)

Purposes: comms

External: N2YO · Heavens-Above · Gunter

§ Orbital elements

Epoch: 2026-09-20T12:24:37.616256Z

Period
93.85 min
Inclination
53.1604°
Eccentricity
0.0001691
Mean motion
15.34394861 rev/d
Perigee alt
461.6 km
Apogee alt
463.9 km
Semi-major
6,840.9 km
B*
5.1695e-5
RAAN
353.4819°
Arg perigee
89.7910°
Mean anomaly
270.3286°
Rev number
14,041

§ Raw data

STARLINK-316091 59269U 24050R   26263.51710204  .00001370  00000+0  51695-4 0  99912 59269  53.1604 353.4819 0001691  89.7910 270.3286 15.34394861140418

JSON: /api/v1/satellites/59269 · /tle

For live sub-satellite position, see the globe view (requires WebGL).

§ Visibility from observer

Set your observer location to see the next 7 days of passes ≥ 10°. The values pass through the URL so the page stays shareable.

No JS? Fill the form by hand. The geolocation button needs JavaScript.